Location: Novo Ouro Preto
(19.8840°S, 43.9844°W)
Time: 08:48:18
(UTC+00:00)

COSMOS 2428 - Pass Details

Date: 18 September 2020
Orbit: 844 x 859 km, 70.9° (Epoch: 22 October)

Event Time Altitude Azimuth Distance (km) Brightness Sun altitude
Rises 21:06:50 0° 325° (NW) 3,410 6.4 -4.5°
Reaches altitude 10° 21:09:26 10° 317° (NW) 2,479 5.8 -5.1°
Maximum altitude 21:14:41 38° 250° (WSW) 1,275 4.4 -6.3°
Drops below altitude 10° 21:20:00 10° 182° (S) 2,491 5.2 -7.6°
Sets 21:22:38 0° 174° (S) 3,430 5.8 -8.2°
